Погода в Слободе

Россия / Московская область     56°28′26″N   36°52′31″E
темп.,
°C
ветер,
м/с
пор.,
м/с
влажн.,
%
обл.,
%
осадки,
мм/ч
давл.,
гПа
погр.,
м
16 мая, вс
вс1600:00+12ю27955 0.0 1008170
03:00+11ююз310977 0.0 1009261
06:00+13ююз4119011 0.0 1010448
09:00+18юз58655 0.0 10101004
12:00+21юз585266 0.1 10101918
15:00+19юз577454 2.8 10111130
18:00+18юз477731 1.0 1012931
21:00+14юз26955 1.0 1013117
17 мая, пн
пн1700:00+12юз23965 0.0 101450
03:00+12ююз119417 0.0 101510
06:00+13юв1290100 0.0 101555
09:00+19юв2467100 0.0 1016582
12:00+22юв4551100 0.0 10151340
15:00+24вюв574924 0.0 10131458
18:00+24вюв486039 0.0 1011997
21:00+17вюв398999 0.6 1011208
18 мая, вт
вт1800:00+16вюв3129536 0.0 1010291
03:00+14вюв3119618 0.0 1010252
06:00+15вюв4138687 0.0 1009359
09:00+21юв6126036 0.0 1008582
12:00+25юв7134675 0.0 10081229
15:00+26юв6144370 0.0 10071971
18:00+24юв5124956 0.0 10061205
21:00+18вюв3127399 0.0 1005327
19 мая, ср
ср1900:00+17юв4138231 0.1 1004479
03:00+16юв311946 0.1 1004425
06:00+16юв41187100 0.0 1004613
09:00+20ююв6126643 0.0 10041299
12:00+17ю51087100 2.4 1005823
15:00+18ю6107928 4.3 10051313
18:00+17ююз486399 0.4 1005696
21:00+14ю410740 0.4 1006512
20 мая, чт
чт2000:00+13ю512780 0.0 1005837
03:00+10ю5118363 0.1 1006864
06:00+10ю51081100 0.0 1006746
09:00+11ююз5984100 0.1 1006948
12:00+14зюз7976100 0.6 10081220
15:00+11зюз61184100 0.6 1011694
18:00+14зюз596625 0.0 10121279
21:00+11юз410825 0.0 1014365